Weather reports worldwide

Advertisment
Brindisi, Italy (16320): temperature & dewpoint: 10.11.2018 05:00:00 - 16.11.2018 05:00:00 (CET)Brindisi, Italy (16320): wind speed: 10.11.2018 05:00:00 - 16.11.2018 05:00:00 (CET)Brindisi, Italy (16320): wind direction: 10.11.2018 05:00:00 - 16.11.2018 05:00:00 (CET)Brindisi, Italy (16320): reduced air pressure: 10.11.2018 05:00:00 - 16.11.2018 05:00:00 (CET)Brindisi, Italy (16320): visibility: 10.11.2018 05:00:00 - 16.11.2018 05:00:00 (CET)Brindisi, Italy (16320): precipitation: 10.11.2018 05:00:00 - 16.11.2018 05:00:00 (CET)
Date & Time tt [°C] td [°C] ff [km/h] ff [kn] dd ppp [hPa] vv [km] rr [mm]
16.11.2018 05:00:00 15,0 6,0 29 16 NNE - 10 -
16.11.2018 04:00:00 15,6 6,3 26 14 NNE 1018,9 10 0,0
16.11.2018 03:00:00 16,0 7,0 24 13 NNE - 10 -
16.11.2018 02:00:00 16,0 6,0 24 13 NNE - 10 -
16.11.2018 01:00:00 15,9 6,1 26 14 NNE 1019,6 10 -
16.11.2018 00:00:00 16,0 5,0 28 15 NNE - 10 -
15.11.2018 23:00:00 17,0 6,0 28 15 NNE - 10 -
15.11.2018 22:00:00 16,6 6,1 28 15 NNE 1020,0 10 0,0
15.11.2018 21:00:00 17,0 6,0 28 15 NNE - 10 -
15.11.2018 20:00:00 17,0 6,0 26 14 N - 10 -
15.11.2018 19:00:00 16,6 5,7 22 12 N 1020,6 10 -
15.11.2018 18:00:00 16,0 6,0 21 11 N - 10 -
15.11.2018 17:00:00 16,0 6,0 21 11 N - 10 -
15.11.2018 16:00:00 16,6 7,0 22 12 NNE 1020,6 10 0,0
15.11.2018 15:00:00 17,0 7,0 24 13 NNE - 10 -
15.11.2018 14:00:00 17,0 8,0 24 13 NNE - 10 -
15.11.2018 13:00:00 17,7 7,8 26 14 NNE 1021,3 10 -
15.11.2018 12:00:00 18,0 7,0 21 11 N - 10 -
15.11.2018 11:00:00 18,0 7,0 21 11 NNE - 10 -
15.11.2018 10:00:00 17,5 8,9 21 11 NE 1022,3 10 0,0
15.11.2018 09:00:00 17,0 9,0 22 12 NE - 10 -
15.11.2018 08:00:00 17,0 9,0 22 12 NE - 10 -
15.11.2018 07:00:00 16,5 9,6 18 10 NE 1021,6 10 -
15.11.2018 06:00:00 17,0 10,0 18 10 NNE - 10 -
15.11.2018 05:00:00 17,0 11,0 16 9 N - 10 -
15.11.2018 04:00:00 17,0 11,6 15 8 NNW 1021,1 10 0,0
15.11.2018 03:00:00 16,0 14,0 29 16 WNW - 10 -
15.11.2018 02:00:00 16,0 14,0 28 15 WNW - 10 -
15.11.2018 01:00:00 15,7 13,7 28 15 WNW 1021,8 10 -
15.11.2018 00:00:00 16,0 14,0 26 14 WNW - 10 -
14.11.2018 23:00:00 17,0 15,0 26 14 WNW - 10 -
14.11.2018 22:00:00 17,2 14,5 28 15 NW 1022,7 10 0,0
14.11.2018 21:00:00 17,0 15,0 26 14 NW - 10 -
14.11.2018 20:00:00 17,0 15,0 24 13 NW - 10 -
14.11.2018 19:00:00 17,4 14,9 22 12 NW 1022,6 10 -
14.11.2018 18:00:00 18,0 15,0 22 12 NW - 10 -
14.11.2018 17:00:00 18,0 16,0 22 12 NW - 10 -
14.11.2018 16:00:00 17,6 15,9 24 13 NW 1022,3 10 0,0
14.11.2018 15:00:00 18,0 15,0 31 17 NW - 10 -
14.11.2018 14:00:00 18,0 15,0 34 18 NW - 10 -
14.11.2018 13:00:00 17,9 15,0 31 17 NW 1023,4 10 -
14.11.2018 12:00:00 18,0 14,0 31 17 NW - 10 -
14.11.2018 11:00:00 18,0 14,0 31 17 NW - 10 -
14.11.2018 10:00:00 17,6 14,3 28 15 NW 1024,8 25 0,0
14.11.2018 09:00:00 17,0 14,0 31 17 NW - 10 -
14.11.2018 08:00:00 16,0 14,0 28 15 NW - 10 -
14.11.2018 07:00:00 15,5 13,9 26 14 NW 1024,6 7 -
14.11.2018 06:00:00 16,0 14,0 26 14 NW - 7 -
14.11.2018 05:00:00 15,0 14,0 24 13 WNW - 10 -
14.11.2018 04:00:00 15,8 14,3 22 12 NW 1024,7 10 0,0
14.11.2018 03:00:00 16,0 15,0 18 10 NW - 10 -
14.11.2018 02:00:00 16,0 14,0 13 7 NW - 10 -
14.11.2018 01:00:00 14,2 13,0 11 6 WNW 1025,6 10 -
14.11.2018 00:00:00 14,0 13,0 11 6 W - 10 -
13.11.2018 23:00:00 14,0 13,0 13 7 W - 7 -
13.11.2018 22:00:00 14,1 13,1 8 4 W 1026,5 7 0,0
13.11.2018 21:00:00 14,0 13,0 9 5 W - 9 -
13.11.2018 20:00:00 16,0 14,0 9 5 NW - 10 -
13.11.2018 19:00:00 15,7 13,8 9 5 NW 1026,8 10 -
13.11.2018 18:00:00 16,0 14,0 9 5 NNW - 10 -
13.11.2018 17:00:00 16,0 14,0 11 6 NW - 10 -
13.11.2018 16:00:00 16,0 13,9 13 7 NNW 1026,4 10 0,0
13.11.2018 15:00:00 17,0 14,0 15 8 NNW - 10 -
13.11.2018 14:00:00 17,0 14,0 16 9 NW - 10 -
13.11.2018 13:00:00 16,4 13,9 18 10 NW 1027,1 10 -
13.11.2018 12:00:00 16,0 14,0 18 10 NW - 8 -
13.11.2018 11:00:00 16,0 14,0 18 10 NW - 6 -
13.11.2018 10:00:00 15,2 14,3 18 10 WNW 1027,9 4,0 0,0
13.11.2018 09:00:00 16,0 15,0 13 7 WNW - 4,0 -
13.11.2018 08:00:00 13,0 13,0 8 4 W - 3,5 -
13.11.2018 07:00:00 10,9 10,5 8 4 W 1027,4 5 -
13.11.2018 06:00:00 10,0 10,0 11 6 WSW - 6 -
13.11.2018 05:00:00 10,0 10,0 9 5 SW - 6 -
13.11.2018 04:00:00 10,2 10,0 8 4 SW 1027,1 6 0,0
13.11.2018 03:00:00 10,0 10,0 9 5 WSW - 4,0 -
13.11.2018 02:00:00 11,0 11,0 8 4 WSW - 4,0 -
13.11.2018 01:00:00 11,0 10,8 8 4 WSW 1027,1 0,1 -
13.11.2018 00:00:00 11,0 11,0 9 5 WSW - 0,3 -
12.11.2018 23:00:00 12,0 12,0 9 5 SW - 1,0 -
12.11.2018 22:00:00 11,4 11,1 9 5 SW 1027,2 0,9 0,0
12.11.2018 21:00:00 12,0 12,0 8 4 WSW - 0,9 -
12.11.2018 20:00:00 12,0 12,0 8 4 WSW - 0,8 -
12.11.2018 19:00:00 12,9 12,6 8 4 WSW 1026,9 1,4 -
12.11.2018 18:00:00 14,0 13,0 5 3 WSW - 0,8 -
12.11.2018 17:00:00 15,0 15,0 2 1 - - 0,1 -
12.11.2018 16:00:00 15,2 14,8 5 3 N 1026,4 0,1 0,0
12.11.2018 15:00:00 16,0 15,0 8 4 N - 0,2 -
12.11.2018 14:00:00 17,0 15,0 9 5 NW - 0,4 -
12.11.2018 13:00:00 17,3 15,3 9 5 NNW 1026,5 10 -
12.11.2018 12:00:00 18,0 15,0 13 7 NNW - 10 -
12.11.2018 11:00:00 18,0 16,0 11 6 NNW - 10 -
12.11.2018 10:00:00 17,9 15,2 9 5 NW 1027,1 10 0,0
12.11.2018 09:00:00 16,0 15,0 9 5 WNW - 10 -
12.11.2018 08:00:00 13,0 12,0 8 4 W - 10 -
12.11.2018 07:00:00 10,4 9,5 5 3 W 1025,9 10 -
12.11.2018 06:00:00 11,0 10,0 9 5 SW - 10 -
12.11.2018 05:00:00 - - - - - - - -
12.11.2018 04:00:00 11,1 10,2 9 5 SW 1024,9 - 0,0
12.11.2018 03:00:00 11,0 10,0 9 5 WSW - 10 -
12.11.2018 02:00:00 12,0 11,0 4 2 SW - 10 -
12.11.2018 01:00:00 11,7 10,5 4 2 SSW 1024,5 10 -
12.11.2018 00:00:00 13,0 11,0 5 3 SSW - 10 -
11.11.2018 23:00:00 13,0 11,0 11 6 SW - 10 -
11.11.2018 22:00:00 12,8 11,5 9 5 SW 1024,3 10 0,0
11.11.2018 21:00:00 15,0 13,0 4 2 S - 10 -
11.11.2018 20:00:00 15,0 13,0 4 2 S - 10 -
11.11.2018 19:00:00 16,0 13,3 8 4 SSE 1023,1 10 -
11.11.2018 18:00:00 17,0 14,0 5 3 SSE - 10 -
11.11.2018 17:00:00 18,0 13,0 8 4 SE - 10 -
11.11.2018 16:00:00 18,8 13,2 8 4 E 1021,9 25 0,0
11.11.2018 15:00:00 19,0 13,0 15 8 E - 10 -
11.11.2018 14:00:00 20,0 13,0 13 7 E - 10 -
11.11.2018 13:00:00 19,7 13,0 15 8 E 1021,3 10 -
11.11.2018 12:00:00 20,0 13,0 11 6 ESE - 10 -
11.11.2018 11:00:00 20,0 12,0 11 6 SE - 10 -
11.11.2018 10:00:00 19,4 12,5 13 7 SSE 1021,2 10 0,0
11.11.2018 09:00:00 18,0 13,0 5 3 SSE - 10 -
11.11.2018 08:00:00 14,0 12,0 4 2 S - 10 -
11.11.2018 07:00:00 13,0 12,0 4 2 S - 10 -
11.11.2018 06:00:00 12,0 10,0 4 2 S - 10 -
11.11.2018 05:00:00 14,0 11,0 4 2 SSE - 10 -
11.11.2018 04:00:00 12,9 11,2 4 2 - 1018,7 10 0,0
11.11.2018 03:00:00 14,0 11,0 4 2 S - 10 -
11.11.2018 02:00:00 15,0 11,0 5 3 SSE - 10 -
11.11.2018 01:00:00 14,9 11,3 8 4 SSE 1018,4 10 -
11.11.2018 00:00:00 15,0 12,0 8 4 SSE - 10 -
10.11.2018 23:00:00 15,0 11,0 5 3 SSE - 10 -
10.11.2018 22:00:00 15,2 11,2 5 3 SSE 1018,0 10 0,0
10.11.2018 21:00:00 16,0 12,0 8 4 SSE - 10 -
10.11.2018 20:00:00 16,0 12,0 5 3 S - 10 -
10.11.2018 19:00:00 16,3 13,4 4 2 SSE 1017,1 10 -
10.11.2018 18:00:00 17,0 13,0 8 4 SSE - 10 -
10.11.2018 17:00:00 18,0 14,0 9 5 SE - 10 -
10.11.2018 16:00:00 18,2 13,7 11 6 ESE 1016,1 10 0,0
10.11.2018 15:00:00 19,0 15,0 13 7 E - 10 -
10.11.2018 14:00:00 18,0 15,0 11 6 E - 10 -
10.11.2018 13:00:00 18,3 15,2 13 7 ENE 1016,5 10 -
10.11.2018 12:00:00 18,0 15,0 8 4 NE - 10 -
10.11.2018 11:00:00 18,0 16,0 8 4 NNE - 10 -
10.11.2018 10:00:00 18,0 15,3 2 1 - 1018,0 8 0,0
10.11.2018 09:00:00 14,0 13,0 8 4 SW - 4,0 -
10.11.2018 08:00:00 11,0 11,0 8 4 WSW - 4,0 -
10.11.2018 07:00:00 10,6 10,1 11 6 WSW 1017,4 5 -
10.11.2018 06:00:00 11,0 10,0 9 5 SW - 0,8 -
10.11.2018 05:00:00 11,0 10,0 4 2 SSW - 8 -

tt = temperature
td = dewpoint
ff = wind speed
dd = wind direction
ppp = reduced air pressure
vv = visibility
rr = precipitation

Next stations